QPF
0.00 0.01 0.01 0.01 0.02 0.02 0.02 0.01 0.01 0.01 0.01 0.01 0.00 0.00 0.00 0.01 0.01 0.00 0.00 0.01 0.01 0.01 0.01 0.01 0.02 0.02 0.03 0.02 0.02 0.03 0.02 0.01 0.01 0.01 0.01 0.01 0.01 0.01 0.01 0.01 0.01 0.01 0.01
0.00 0.01 0.01 0.01 0.02 0.02 0.02 0.02 0.01 0.01 0.01 0.01 0.01 0.01 0.00 0.00 0.00 0.00 0.01 0.01 0.01 0.01 0.01 0.01 0.01 0.02 0.03 0.02 0.02 0.01 0.01 0.00 0.00 0.00 0.00 0.01 0.01 0.02 0.02 0.01 0.01 0.01 0.01
0.00 0.00 0.01 0.01 0.01 0.02 0.02 0.02 0.02 0.01 0.01 0.01 0.01 0.01 0.01 0.01 0.01 0.01 0.01 0.02 0.01 0.01 0.01 0.01 0.02 0.03 0.03 0.02 0.02 0.01 0.00 0.00 0.00 0.00 0.00 0.00 0.01 0.01 0.02 0.02 0.01 0.01 0.01
0.00 0.00 0.00 0.01 0.01 0.01 0.01 0.01 0.01 0.01 0.01 0.01 0.01 0.01 0.01 0.02 0.01 0.01 0.02 0.03 0.02 0.01 0.01 0.01 0.01 0.01 0.01 0.02 0.01 0.01 0.01 0.01 0.00 0.00 0.00 0.00 0.00 0.02 0.02 0.03 0.02 0.02 0.02
0.00 0.00 0.00 0.01 0.01 0.01 0.01 0.01 0.01 0.01 0.01 0.01 0.01 0.00 0.01 0.01 0.01 0.01 0.01 0.02 0.01 0.01 0.00 0.00 0.00 0.00 0.01 0.02 0.01 0.01 0.00 0.00 0.00 0.00 0.00 0.00 0.00 0.01 0.01 0.02 0.02 0.02 0.03
0.00 0.00 0.00 0.01 0.01 0.01 0.01 0.01 0.01 0.01 0.01 0.01 0.01 0.01 0.01 0.01 0.01 0.01 0.01 0.01 0.01 0.01 0.00 0.00 0.00 0.00 0.01 0.01 0.01 0.01 0.00 0.00 0.00 0.00 0.00 0.00 0.01 0.01 0.02 0.02 0.02 0.02 0.02
0.00 0.00 0.00 0.01 0.01 0.01 0.00 0.01 0.01 0.01 0.01 0.01 0.00 0.01 0.01 0.01 0.01 0.02 0.01 0.01 0.02 0.01 0.01 0.00 0.00 0.00 0.01 0.01 0.01 0.01 0.01 0.00 0.00 0.00 0.00 0.00 0.00 0.01 0.01 0.02 0.02 0.02 0.02
0.00 0.00 0.01 0.01 0.01 0.01 0.00 0.00 0.01 0.01 0.00 0.00 0.00 0.01 0.01 0.01 0.01 0.01 0.01 0.01 0.01 0.01 0.01 0.00 0.00 0.00 0.00 0.01 0.01 0.00 0.01 0.00 0.00 0.00 0.00 0.00 0.00 0.00 0.01 0.01 0.01 0.01 0.01
0.00 0.00 0.01 0.01 0.01 0.01 0.00 0.00 0.00 0.01 0.00 0.01 0.00 0.00 0.01 0.01 0.00 0.00 0.00 0.00 0.00 0.00 0.00 0.00 0.00 0.01 0.01 0.01 0.00 0.00 0.00 0.00 0.00 0.00 0.00 0.00 0.00 0.01 0.01 0.01 0.01 0.01 0.01
0.01 0.00 0.01 0.01 0.00 0.00 0.00 0.00 0.00 0.00 0.00 0.01 0.00 0.00 0.00 0.00 0.00 0.01 0.01 0.01 0.01 0.01 0.01 0.01 0.01 0.01 0.01 0.01 0.00 0.00 0.00 0.00 0.00 0.00 0.00 0.00 0.00 0.01 0.01 0.02 0.02 0.01 0.01
0.01 0.01 0.01 0.01 0.00 0.00 0.00 0.00 0.00 0.00 0.00 0.01 0.00 0.00 0.00 0.00 0.00 0.00 0.00 0.01 0.01 0.01 0.01 0.01 0.01 0.01 0.01 0.00 0.00 0.00 0.00 0.00 0.00 0.00 0.00 0.00 0.00 0.01 0.02 0.02 0.02 0.01 0.01
0.01 0.01 0.01 0.01 0.00 0.00 0.00 0.00 0.00 0.00 0.00 0.00 0.00 0.00 0.00 0.00 0.00 0.00 0.00 0.00 0.00 0.01 0.01 0.01 0.01 0.01 0.00 0.00 0.00 0.00 0.00 0.00 0.00 0.00 0.00 0.00 0.01 0.02 0.03 0.03 0.03 0.02 0.02
0.00 0.01 0.01 0.01 0.01 0.00 0.00 0.00 0.00 0.00 0.00 0.00 0.00 0.00 0.00 0.00 0.00 0.00 0.00 0.00 0.00 0.00 0.00 0.00 0.00 0.00 0.00 0.00 0.00 0.00 0.00 0.00 0.00 0.00 0.00 0.00 0.01 0.02 0.03 0.03 0.03 0.03 0.02
0.00 0.00 0.00 0.01 0.01 0.00 0.00 0.00 0.00 0.01 0.01 0.01 0.00 0.00 0.00 0.00 0.01 0.00 0.00 0.00 0.00 0.00 0.00 0.00 0.00 0.00 0.00 0.00 0.00 0.00 0.00 0.00 0.00 0.00 0.00 0.00 0.01 0.01 0.01 0.02 0.02 0.03 0.03
0.00 0.00 0.00 0.00 0.01 0.01 0.01 0.01 0.01 0.01 0.01 0.02 0.02 0.01 0.01 0.01 0.01 0.01 0.00 0.00 0.00 0.00 0.00 0.00 0.00 0.00 0.00 0.01 0.01 0.00 0.00 0.00 0.00 0.00 0.00 0.00 0.00 0.01 0.01 0.01 0.02 0.02 0.03
0.01 0.01 0.00 0.00 0.00 0.01 0.01 0.01 0.01 0.01 0.01 0.00 0.00 0.01 0.01 0.01 0.01 0.01 0.01 0.00 0.00 0.00 0.00 0.00 0.00 0.01 0.01 0.00 0.00 0.00 0.00 0.00 0.00 0.00 0.00 0.01 0.01 0.01 0.01 0.01 0.01 0.02 0.02
0.01 0.01 0.01 0.00 0.00 0.01 0.01 0.02 0.02 0.01 0.01 0.00 0.00 0.00 0.01 0.01 0.00 0.00 0.01 0.01 0.00 0.00 0.00 0.01 0.01 0.02 0.01 0.00 0.00 0.00 0.00 0.00 0.00 0.00 0.01 0.01 0.01 0.01 0.01 0.01 0.01 0.02 0.02
0.01 0.01 0.01 0.01 0.00 0.01 0.01 0.03 0.02 0.01 0.00 0.00 0.01 0.00 0.00 0.01 0.01 0.01 0.01 0.01 0.01 0.00 0.01 0.01 0.01 0.01 0.00 0.00 0.00 0.00 0.00 0.00 0.01 0.01 0.01 0.01 0.01 0.01 0.01 0.01 0.01 0.01 0.02
0.00 0.00 0.01 0.01 0.01 0.01 0.02 0.03 0.03 0.01 0.01 0.01 0.01 0.01 0.00 0.01 0.01 0.01 0.01 0.01 0.01 0.00 0.00 0.01 0.00 0.00 0.00 0.00 0.00 0.00 0.00 0.00 0.00 0.00 0.00 0.00 0.00 0.00 0.00 0.00 0.00 0.00 0.01
0.00 0.00 0.01 0.01 0.01 0.01 0.02 0.02 0.02 0.01 0.01 0.01 0.00 0.00 0.01 0.01 0.01 0.01 0.01 0.01 0.01 0.00 0.00 0.00 0.00 0.00 0.00 0.00 0.00 0.00 0.00 0.00 0.00 0.00 0.00 0.00 0.00 0.00 0.00 0.00 0.00 0.00 0.00
0.00 0.00 0.00 0.01 0.01 0.01 0.01 0.01 0.01 0.01 0.01 0.01 0.01 0.01 0.01 0.01 0.01 0.01 0.01 0.01 0.01 0.01 0.01 0.01 0.00 0.00 0.00 0.00 0.00 0.00 0.00 0.00 0.00 0.00 0.00 0.00 0.00 0.00 0.00 0.00 0.00 0.00 0.00
0.00 0.00 0.00 0.00 0.01 0.01 0.01 0.01 0.01 0.01 0.01 0.01 0.01 0.01 0.01 0.01 0.01 0.01 0.01 0.01 0.01 0.01 0.01 0.01 0.01 0.01 0.00 0.00 0.00 0.00 0.00 0.00 0.00 0.00 0.00 0.00 0.00 0.00 0.00 0.00 0.00 0.00 0.00
0.00 0.00 0.00 0.00 0.00 0.00 0.01 0.01 0.01 0.01 0.01 0.01 0.01 0.01 0.01 0.01 0.01 0.01 0.01 0.01 0.01 0.01 0.01 0.00 0.00 0.00 0.00 0.00 0.00 0.00 0.00 0.00 0.00 0.00 0.00 0.00 0.00 0.00 0.00 0.00 0.00 0.00 0.00
0.00 0.00 0.00 0.00 0.00 0.00 0.00 0.00 0.00 0.00 0.00 0.00 0.00 0.00 0.00 0.01 0.01 0.01 0.01 0.01 0.01 0.01 0.01 0.00 0.00 0.00 0.00 0.00 0.00 0.00 0.00 0.00 0.00 0.00 0.00 0.00 0.00 0.01 0.00 0.00 0.00 0.00 0.00
0.00 0.00 0.00 0.00 0.00 0.00 0.00 0.00 0.00 0.00 0.00 0.00 0.01 0.01 0.01 0.01 0.01 0.01 0.01 0.01 0.01 0.01 0.01 0.01 0.00 0.01 0.01 0.01 0.01 0.00 0.00 0.00 0.00 0.00 0.00 0.00 0.01 0.01 0.00 0.00 0.00 0.00 0.00
0.00 0.00 0.00 0.00 0.00 0.00 0.00 0.00 0.00 0.00 0.00 0.00 0.00 0.01 0.01 0.00 0.01 0.01 0.01 0.01 0.01 0.01 0.01 0.01 0.01 0.02 0.02 0.02 0.01 0.01 0.00 0.00 0.00 0.00 0.00 0.00 0.00 0.00 0.00 0.00 0.00 0.00 0.00
MSLP
1011.74 1011.51 1011.44 1011.54 1011.79 1012.13 1012.50 1012.85 1013.14 1013.35 1013.50 1013.64 1013.80 1014.01 1014.29 1014.62 1014.97 1015.32 1015.62 1015.86 1016.04 1016.17 1016.29 1016.41 1016.56 1016.73 1016.93 1017.12 1017.29 1017.41 1017.48 1017.51 1017.49 1017.45 1017.41 1017.37 1017.34 1017.32 1017.30 1017.30 1017.30 1017.32 1017.34
1011.56 1011.38 1011.36 1011.51 1011.80 1012.18 1012.59 1012.97 1013.29 1013.54 1013.73 1013.91 1014.12 1014.38 1014.70 1015.07 1015.45 1015.81 1016.12 1016.36 1016.52 1016.64 1016.72 1016.81 1016.92 1017.06 1017.21 1017.37 1017.51 1017.61 1017.68 1017.71 1017.72 1017.70 1017.68 1017.66 1017.64 1017.62 1017.60 1017.59 1017.57 1017.57 1017.58
1011.29 1011.18 1011.21 1011.42 1011.76 1012.19 1012.65 1013.08 1013.45 1013.74 1013.98 1014.21 1014.45 1014.74 1015.09 1015.47 1015.87 1016.23 1016.53 1016.76 1016.91 1017.00 1017.07 1017.14 1017.22 1017.33 1017.46 1017.60 1017.72 1017.82 1017.90 1017.94 1017.97 1017.99 1017.99 1017.99 1017.98 1017.97 1017.93 1017.90 1017.86 1017.84 1017.84
1011.01 1010.96 1011.06 1011.32 1011.72 1012.21 1012.72 1013.19 1013.60 1013.94 1014.22 1014.48 1014.75 1015.06 1015.41 1015.80 1016.18 1016.53 1016.81 1017.03 1017.17 1017.26 1017.33 1017.40 1017.48 1017.59 1017.71 1017.84 1017.96 1018.07 1018.15 1018.22 1018.27 1018.30 1018.33 1018.34 1018.33 1018.31 1018.26 1018.21 1018.15 1018.10 1018.09
1010.82 1010.83 1010.99 1011.30 1011.74 1012.26 1012.80 1013.31 1013.75 1014.11 1014.42 1014.69 1014.98 1015.29 1015.64 1016.01 1016.37 1016.70 1016.97 1017.18 1017.33 1017.44 1017.52 1017.61 1017.72 1017.84 1017.98 1018.12 1018.25 1018.36 1018.45 1018.53 1018.59 1018.64 1018.67 1018.68 1018.66 1018.62 1018.55 1018.47 1018.39 1018.33 1018.29
1010.81 1010.87 1011.06 1011.40 1011.87 1012.40 1012.94 1013.45 1013.89 1014.25 1014.56 1014.85 1015.13 1015.44 1015.78 1016.13 1016.47 1016.78 1017.05 1017.25 1017.42 1017.55 1017.68 1017.81 1017.96 1018.12 1018.28 1018.44 1018.58 1018.69 1018.79 1018.86 1018.92 1018.96 1018.98 1018.97 1018.94 1018.87 1018.78 1018.67 1018.57 1018.49 1018.45
1011.00 1011.09 1011.31 1011.66 1012.11 1012.62 1013.13 1013.61 1014.02 1014.36 1014.66 1014.94 1015.22 1015.53 1015.85 1016.19 1016.52 1016.82 1017.08 1017.30 1017.49 1017.65 1017.82 1018.01 1018.20 1018.40 1018.60 1018.77 1018.92 1019.04 1019.13 1019.19 1019.23 1019.25 1019.25 1019.22 1019.16 1019.07 1018.96 1018.84 1018.72 1018.63 1018.58
1011.37 1011.49 1011.71 1012.05 1012.47 1012.92 1013.37 1013.79 1014.15 1014.45 1014.73 1015.00 1015.28 1015.59 1015.92 1016.26 1016.58 1016.88 1017.13 1017.36 1017.56 1017.77 1017.97 1018.20 1018.44 1018.67 1018.90 1019.09 1019.24 1019.35 1019.42 1019.47 1019.48 1019.48 1019.46 1019.41 1019.34 1019.23 1019.11 1018.98 1018.86 1018.77 1018.71
1011.83 1011.97 1012.20 1012.51 1012.88 1013.26 1013.64 1013.98 1014.27 1014.54 1014.79 1015.06 1015.36 1015.68 1016.03 1016.37 1016.70 1016.99 1017.25 1017.47 1017.68 1017.90 1018.13 1018.38 1018.64 1018.90 1019.14 1019.34 1019.49 1019.59 1019.65 1019.67 1019.67 1019.65 1019.61 1019.56 1019.48 1019.38 1019.26 1019.13 1019.02 1018.93 1018.88
1012.28 1012.44 1012.66 1012.95 1013.27 1013.59 1013.89 1014.16 1014.40 1014.63 1014.87 1015.15 1015.47 1015.82 1016.19 1016.55 1016.88 1017.17 1017.42 1017.64 1017.84 1018.04 1018.27 1018.53 1018.79 1019.06 1019.30 1019.49 1019.64 1019.73 1019.78 1019.79 1019.78 1019.76 1019.73 1019.68 1019.61 1019.53 1019.43 1019.32 1019.22 1019.15 1019.10
1012.61 1012.79 1013.02 1013.30 1013.58 1013.85 1014.09 1014.31 1014.51 1014.72 1014.97 1015.27 1015.62 1016.01 1016.41 1016.79 1017.13 1017.42 1017.65 1017.84 1018.01 1018.20 1018.40 1018.64 1018.89 1019.14 1019.37 1019.56 1019.70 1019.78 1019.82 1019.84 1019.83 1019.82 1019.81 1019.79 1019.75 1019.69 1019.62 1019.54 1019.46 1019.40 1019.35
1012.75 1012.96 1013.21 1013.49 1013.76 1014.00 1014.21 1014.41 1014.59 1014.81 1015.07 1015.40 1015.79 1016.21 1016.64 1017.05 1017.39 1017.67 1017.88 1018.04 1018.19 1018.34 1018.51 1018.72 1018.94 1019.17 1019.39 1019.56 1019.69 1019.77 1019.82 1019.84 1019.85 1019.87 1019.88 1019.89 1019.89 1019.87 1019.83 1019.77 1019.71 1019.65 1019.61
1012.69 1012.93 1013.21 1013.51 1013.78 1014.03 1014.24 1014.43 1014.63 1014.87 1015.16 1015.52 1015.94 1016.40 1016.85 1017.27 1017.62 1017.89 1018.09 1018.23 1018.34 1018.46 1018.61 1018.78 1018.98 1019.19 1019.38 1019.55 1019.67 1019.75 1019.80 1019.84 1019.87 1019.91 1019.95 1020.00 1020.02 1020.03 1020.02 1019.98 1019.93 1019.88 1019.84
1012.46 1012.73 1013.04 1013.36 1013.66 1013.93 1014.17 1014.39 1014.61 1014.88 1015.20 1015.59 1016.04 1016.52 1016.98 1017.41 1017.76 1018.03 1018.21 1018.35 1018.46 1018.57 1018.70 1018.86 1019.04 1019.23 1019.41 1019.57 1019.69 1019.77 1019.83 1019.88 1019.92 1019.98 1020.05 1020.11 1020.16 1020.19 1020.19 1020.16 1020.11 1020.05 1020.00
1012.12 1012.40 1012.73 1013.08 1013.41 1013.72 1013.99 1014.25 1014.52 1014.82 1015.17 1015.58 1016.04 1016.52 1016.98 1017.41 1017.76 1018.04 1018.24 1018.39 1018.52 1018.65 1018.79 1018.96 1019.15 1019.34 1019.51 1019.66 1019.78 1019.86 1019.92 1019.97 1020.03 1020.10 1020.17 1020.24 1020.30 1020.33 1020.33 1020.29 1020.24 1020.17 1020.10
1011.72 1011.99 1012.32 1012.69 1013.05 1013.39 1013.72 1014.02 1014.33 1014.67 1015.04 1015.46 1015.91 1016.37 1016.83 1017.25 1017.61 1017.91 1018.14 1018.34 1018.52 1018.69 1018.88 1019.09 1019.30 1019.50 1019.69 1019.84 1019.96 1020.04 1020.10 1020.15 1020.21 1020.27 1020.33 1020.40 1020.45 1020.47 1020.46 1020.41 1020.34 1020.25 1020.16
1011.29 1011.53 1011.85 1012.21 1012.59 1012.97 1013.34 1013.70 1014.05 1014.42 1014.80 1015.21 1015.65 1016.09 1016.53 1016.94 1017.31 1017.64 1017.93 1018.19 1018.44 1018.69 1018.94 1019.20 1019.46 1019.70 1019.91 1020.07 1020.19 1020.28 1020.34 1020.39 1020.44 1020.49 1020.55 1020.60 1020.64 1020.65 1020.62 1020.56 1020.46 1020.36 1020.25
1010.83 1011.03 1011.31 1011.66 1012.04 1012.45 1012.86 1013.26 1013.66 1014.05 1014.45 1014.86 1015.27 1015.69 1016.09 1016.49 1016.88 1017.24 1017.59 1017.93 1018.26 1018.60 1018.94 1019.27 1019.59 1019.87 1020.11 1020.30 1020.44 1020.54 1020.61 1020.66 1020.71 1020.76 1020.81 1020.85 1020.88 1020.88 1020.84 1020.77 1020.66 1020.54 1020.42
1010.33 1010.47 1010.69 1011.01 1011.39 1011.81 1012.26 1012.71 1013.15 1013.58 1013.99 1014.39 1014.79 1015.17 1015.57 1015.95 1016.35 1016.74 1017.15 1017.56 1017.98 1018.40 1018.82 1019.23 1019.61 1019.95 1020.23 1020.46 1020.63 1020.76 1020.85 1020.92 1020.98 1021.04 1021.10 1021.15 1021.18 1021.18 1021.14 1021.08 1020.97 1020.85 1020.72
1009.77 1009.83 1009.99 1010.26 1010.62 1011.06 1011.54 1012.03 1012.52 1012.99 1013.43 1013.83 1014.22 1014.59 1014.96 1015.35 1015.75 1016.17 1016.62 1017.09 1017.57 1018.07 1018.56 1019.03 1019.47 1019.86 1020.20 1020.48 1020.70 1020.88 1021.01 1021.12 1021.22 1021.31 1021.39 1021.46 1021.52 1021.54 1021.53 1021.48 1021.39 1021.28 1021.14
1009.13 1009.11 1009.20 1009.42 1009.76 1010.20 1010.70 1011.24 1011.78 1012.29 1012.76 1013.19 1013.58 1013.95 1014.31 1014.69 1015.10 1015.53 1016.01 1016.51 1017.04 1017.58 1018.12 1018.64 1019.13 1019.58 1019.97 1020.31 1020.60 1020.84 1021.05 1021.22 1021.38 1021.52 1021.65 1021.76 1021.86 1021.92 1021.95 1021.94 1021.88 1021.79 1021.67
1008.46 1008.35 1008.37 1008.53 1008.83 1009.26 1009.79 1010.36 1010.94 1011.50 1012.01 1012.47 1012.88 1013.26 1013.62 1014.01 1014.41 1014.85 1015.33 1015.85 1016.39 1016.95 1017.51 1018.06 1018.58 1019.08 1019.53 1019.94 1020.31 1020.63 1020.92 1021.18 1021.41 1021.62 1021.82 1021.99 1022.14 1022.26 1022.35 1022.39 1022.38 1022.32 1022.22
1007.80 1007.62 1007.56 1007.65 1007.91 1008.32 1008.84 1009.43 1010.04 1010.64 1011.19 1011.68 1012.11 1012.51 1012.89 1013.28 1013.69 1014.13 1014.60 1015.11 1015.64 1016.19 1016.75 1017.30 1017.85 1018.38 1018.89 1019.38 1019.83 1020.25 1020.63 1020.98 1021.30 1021.59 1021.86 1022.10 1022.32 1022.51 1022.66 1022.76 1022.81 1022.80 1022.72
1007.26 1007.00 1006.85 1006.87 1007.07 1007.43 1007.93 1008.51 1009.12 1009.73 1010.30 1010.81 1011.28 1011.70 1012.11 1012.51 1012.92 1013.36 1013.82 1014.31 1014.82 1015.34 1015.88 1016.43 1016.98 1017.55 1018.11 1018.66 1019.20 1019.71 1020.19 1020.63 1021.03 1021.40 1021.74 1022.05 1022.34 1022.60 1022.82 1022.99 1023.11 1023.15 1023.12
1006.90 1006.57 1006.34 1006.28 1006.39 1006.68 1007.11 1007.64 1008.22 1008.81 1009.37 1009.90 1010.38 1010.83 1011.25 1011.68 1012.11 1012.55 1013.00 1013.47 1013.95 1014.45 1014.96 1015.50 1016.06 1016.64 1017.25 1017.86 1018.48 1019.07 1019.64 1020.16 1020.64 1021.08 1021.48 1021.85 1022.20 1022.53 1022.82 1023.07 1023.25 1023.35 1023.36
1006.81 1006.39 1006.08 1005.92 1005.94 1006.12 1006.45 1006.89 1007.39 1007.92 1008.44 1008.95 1009.43 1009.89 1010.34 1010.79 1011.24 1011.70 1012.16 1012.62 1013.09 1013.56 1014.05 1014.58 1015.14 1015.74 1016.39 1017.05 1017.73 1018.40 1019.03 1019.62 1020.16 1020.66 1021.11 1021.54 1021.94 1022.33 1022.68 1022.99 1023.24 1023.40 1023.46
Thickness
5758 5761 5761 5759 5758 5757 5756 5755 5754 5753 5752 5751 5750 5749 5748 5747 5747 5746 5745 5745 5744 5744 5743 5743 5742 5741 5740 5739 5737 5736 5735 5734 5733 5732 5731 5730 5730 5729 5728 5727 5726 5726 5725
5762 5760 5759 5758 5756 5755 5753 5752 5751 5750 5749 5748 5747 5746 5745 5745 5744 5743 5742 5742 5741 5741 5740 5740 5739 5737 5736 5735 5734 5733 5731 5730 5729 5728 5727 5727 5726 5726 5725 5724 5723 5723 5722
5760 5758 5757 5755 5754 5752 5751 5749 5748 5747 5746 5745 5744 5743 5742 5742 5741 5740 5739 5739 5738 5738 5737 5736 5735 5734 5732 5731 5730 5729 5728 5726 5725 5724 5723 5723 5723 5722 5721 5721 5720 5719 5718
5757 5755 5754 5752 5751 5749 5748 5746 5745 5744 5743 5742 5741 5740 5739 5739 5738 5737 5736 5736 5735 5734 5733 5732 5731 5730 5729 5727 5726 5725 5724 5722 5721 5720 5720 5719 5719 5718 5718 5717 5716 5715 5715
5753 5752 5750 5749 5747 5746 5744 5743 5742 5740 5739 5738 5738 5737 5736 5735 5735 5734 5733 5732 5731 5730 5729 5728 5727 5726 5725 5724 5722 5721 5719 5718 5717 5716 5715 5715 5715 5715 5714 5713 5712 5711 5711
5748 5748 5747 5745 5744 5742 5741 5740 5739 5737 5736 5735 5734 5733 5732 5732 5731 5730 5729 5728 5727 5726 5725 5724 5723 5722 5721 5720 5718 5717 5715 5714 5713 5712 5711 5711 5711 5710 5710 5709 5708 5707 5706
5743 5743 5742 5741 5740 5739 5737 5736 5735 5734 5732 5731 5730 5729 5729 5728 5727 5725 5725 5724 5723 5721 5720 5719 5719 5718 5717 5715 5714 5713 5711 5710 5709 5708 5707 5706 5706 5706 5705 5705 5704 5703 5702
5739 5738 5738 5737 5736 5734 5733 5732 5731 5730 5728 5727 5726 5725 5724 5723 5722 5721 5720 5719 5718 5717 5716 5715 5714 5713 5712 5711 5709 5708 5707 5705 5704 5703 5702 5702 5702 5701 5701 5700 5699 5698 5697
5734 5733 5733 5732 5731 5730 5729 5728 5726 5725 5724 5723 5722 5721 5720 5719 5718 5717 5715 5714 5713 5712 5712 5711 5710 5709 5707 5706 5705 5703 5702 5701 5700 5698 5698 5697 5697 5697 5696 5695 5694 5693 5692
5727 5727 5727 5726 5726 5725 5724 5723 5722 5721 5719 5718 5717 5716 5715 5714 5713 5711 5710 5710 5709 5708 5707 5706 5705 5703 5702 5701 5699 5698 5697 5696 5695 5694 5693 5692 5692 5692 5691 5690 5689 5688 5687
5719 5720 5721 5721 5720 5719 5718 5717 5717 5716 5714 5713 5712 5711 5710 5708 5707 5706 5705 5705 5704 5703 5702 5701 5699 5698 5697 5695 5694 5693 5692 5690 5689 5688 5688 5687 5687 5687 5686 5685 5684 5683 5682
5713 5714 5715 5715 5714 5714 5713 5712 5711 5710 5709 5708 5707 5706 5705 5703 5702 5701 5700 5699 5698 5697 5696 5695 5694 5693 5691 5690 5689 5687 5686 5685 5684 5683 5682 5682 5682 5681 5681 5680 5679 5677 5676
5709 5709 5709 5709 5709 5708 5707 5707 5706 5705 5704 5703 5702 5701 5699 5698 5697 5696 5695 5693 5693 5692 5691 5690 5688 5687 5686 5685 5683 5682 5681 5679 5678 5677 5676 5676 5675 5675 5675 5674 5673 5672 5671
5703 5704 5704 5704 5703 5703 5702 5701 5700 5700 5699 5697 5696 5696 5694 5693 5691 5690 5689 5688 5687 5686 5685 5684 5683 5681 5680 5679 5678 5676 5675 5673 5672 5671 5670 5670 5669 5668 5668 5668 5667 5666 5665
5698 5698 5699 5699 5699 5698 5697 5696 5695 5694 5693 5692 5691 5690 5690 5688 5687 5685 5684 5683 5682 5681 5680 5678 5677 5675 5674 5673 5672 5670 5669 5668 5666 5665 5664 5663 5662 5661 5661 5661 5660 5659 5658
5694 5694 5694 5694 5694 5693 5692 5691 5690 5689 5688 5687 5687 5686 5685 5684 5682 5681 5679 5677 5676 5675 5674 5673 5671 5669 5668 5667 5665 5664 5662 5661 5660 5659 5657 5656 5655 5654 5653 5653 5652 5651 5650
5689 5689 5689 5690 5689 5688 5687 5686 5685 5684 5683 5683 5682 5681 5680 5679 5677 5676 5674 5672 5671 5670 5668 5667 5665 5663 5661 5660 5659 5657 5656 5654 5653 5652 5650 5649 5648 5646 5645 5644 5643 5642 5642
5684 5684 5685 5685 5684 5683 5682 5681 5680 5679 5678 5677 5676 5676 5675 5674 5672 5671 5669 5667 5665 5664 5662 5660 5658 5656 5654 5652 5651 5650 5648 5647 5646 5644 5643 5641 5639 5638 5636 5635 5634 5633 5632
5679 5680 5679 5679 5679 5678 5676 5675 5673 5673 5672 5671 5671 5670 5669 5668 5667 5665 5663 5662 5660 5658 5656 5654 5651 5649 5646 5645 5643 5642 5640 5639 5638 5636 5635 5633 5631 5629 5627 5626 5624 5623 5622
5673 5674 5674 5673 5673 5672 5670 5668 5666 5665 5665 5665 5664 5664 5664 5662 5661 5659 5657 5655 5654 5651 5649 5647 5644 5642 5639 5637 5636 5633 5632 5631 5629 5628 5626 5624 5622 5621 5618 5617 5615 5613 5612
5665 5666 5667 5667 5666 5665 5664 5662 5660 5658 5658 5658 5658 5658 5657 5656 5655 5653 5651 5649 5647 5645 5642 5640 5637 5633 5630 5628 5626 5623 5622 5622 5620 5619 5617 5615 5613 5611 5609 5607 5605 5604 5602
5660 5660 5661 5661 5660 5660 5660 5658 5656 5654 5652 5651 5651 5651 5650 5650 5649 5647 5645 5642 5640 5638 5635 5632 5630 5625 5621 5618 5616 5613 5611 5611 5611 5610 5607 5605 5603 5601 5599 5597 5595 5593 5591
5653 5655 5657 5655 5655 5654 5654 5651 5649 5646 5644 5643 5643 5643 5643 5643 5642 5641 5639 5636 5633 5631 5628 5625 5622 5619 5613 5609 5607 5604 5600 5599 5597 5598 5597 5595 5593 5591 5589 5587 5585 5583 5580
5648 5649 5650 5649 5648 5648 5647 5646 5644 5641 5639 5638 5637 5636 5636 5635 5634 5633 5631 5629 5626 5624 5621 5618 5615 5611 5607 5602 5597 5594 5592 5589 5585 5585 5585 5583 5582 5580 5578 5576 5574 5572 5569
5641 5641 5642 5642 5641 5641 5640 5639 5637 5635 5633 5630 5629 5628 5627 5626 5625 5624 5623 5621 5618 5616 5613 5610 5606 5603 5599 5595 5590 5585 5581 5577 5574 5572 5572 5572 5570 5569 5567 5565 5562 5560 5558
5632 5633 5634 5634 5633 5633 5632 5631 5630 5628 5625 5622 5620 5619 5618 5617 5616 5615 5614 5612 5610 5607 5605 5601 5598 5594 5591 5586 5582 5577 5573 5569 5565 5561 5559 5558 5558 5558 5556 5554 5551 5549 5546